Location: Catacaguana
(10.4120°N, 66.7591°W)
Time: 06:32:00
(UTC+00:00)

CZ-2C R/B - Pass Details

Date: 27 May 2022
Orbit: 497 x 559 km, 97.8° (Epoch: 28 June)

Event Time Altitude Azimuth Distance (km) Brightness Sun altitude
Rises 09:13:05 0° 352° (N) 2,576 6.5 -12.4°
Reaches altitude 10° 09:15:25 10° 338° (NNW) 1,699 5.4 -11.8°
Maximum altitude 09:18:24 24° 283° (WNW) 1,080 3.9 -11.2°
Enters shadow 09:20:29 15° 238° (WSW) 1,429 4.3 -10.7°
